{"data":{"norad_id":64212,"epoch":"2026-05-25T00:02:05.822592Z","epoch_age_seconds":70991,"freshness":"FRESH","line1":"1 64212U 25117K   26145.00145628  .00014208  00000+0  49098-3 0  9992","line2":"2 64212  53.1588  44.8407 0001266  68.0008 292.1127 15.30196047 56215","mean_motion":15.30196047,"eccentricity":0.0001266,"inclination_deg":53.1588,"raan_deg":44.8407,"arg_perigee_deg":68.0008,"mean_anomaly_deg":292.1127,"bstar":0.00049098,"rev_number":5621,"period_min":94.105588811523,"perigee_km":474.35923652396,"apogee_km":476.09450825644,"semimajor_km":6853.3638723902,"source":"CELESTRAK","updated_at":"2026-05-25T13:38:20.318787Z"}}